[[{"header":{"parameterUnit":"m.s-1","parameterCategory":1,"la1":30.2991,"la2":30.254,"lo1":-89.0895,"lo2":-89.0444,"dy":0.0017,"dx":0.0017,"nx":28,"ny":28,"refTime":"2025-07-08T03:00:00:Z","depth":0,"parameterNumber":2,"parameterNumberName":"U-component_of_WINDS"},"data":[0,0,0,0,0,0,0,0,0,0,0,0,0,0,0,0,0,0,0,0,0,0,0,0,0,0,0,0,0,0,0,0,0,0,0,0,0,0,0,0,0,0,0,0,0,0,0,0,0,0,0,0,0,0,0,0,0,0,4.2867,4.2869,0,4.3073,4.3075,4.3077,4.3065,4.3062,4.3059,4.3056,4.327,4.3279,4.3287,0,0,0,0,0,0,0,0,0,0,0,0,0,4.2463,4.247,4.2866,4.2869,4.2872,4.3072,4.3075,4.3078,4.3065,4.3062,4.3058,4.3054,4.3268,4.3278,4.3288,0,0,0,0,0,0,0,0,0,0,0,0,0,4.2651,4.2473,4.2866,4.2889,4.2893,4.3072,4.3075,4.3079,4.3066,4.3061,4.3057,4.3053,4.3264,4.3277,4.3289,4.3459,0,0,4.3328,4.3334,0,0,0,0,0,0,0,0,4.264,4.2666,4.2883,4.2888,4.2893,4.3038,4.3012,4.3206,4.3067,4.3001,4.3056,4.305,4.3197,4.3215,4.3264,4.3469,4.3478,4.333,4.3337,4.3343,4.3346,0,0,0,0,0,0,0,4.2627,4.2657,4.2948,4.2886,4.2892,4.289,4.2912,4.3048,4.3122,4.3006,4.3006,4.303,4.3199,4.3252,4.3269,4.3481,4.3329,4.3341,4.3349,4.3354,4.3834,4.3839,0,0,0,0,0,0,4.2609,4.2646,4.2942,4.2954,4.2753,4.2901,4.2925,4.2996,4.312,4.3135,4.3034,4.3029,4.3232,4.3254,4.3276,4.3481,4.3343,4.3355,4.3362,4.3829,4.3835,4.384,0,0,0,0,0,0,4.26,4.2635,4.2933,4.28,4.2838,4.2913,4.2993,4.3003,4.3055,4.3141,4.3154,4.3074,4.3229,4.3258,4.3413,4.3489,4.3361,4.3372,4.3823,4.3831,4.3838,4.3894,0,0,0,0,0,0,4.2588,4.2632,4.2697,4.2802,4.2845,4.3066,4.2997,4.301,4.3077,4.3072,4.3182,4.3196,4.3228,4.3394,4.3426,4.3504,4.3382,4.3816,4.3826,4.3835,4.3885,4.3902,4.3917,0,0,0,0,0,4.2574,4.2706,4.27,4.2736,4.2928,4.307,4.3095,4.3128,4.3083,4.3149,4.3204,4.3193,4.3475,4.341,4.3445,4.3529,4.3812,4.3823,4.3834,4.3878,4.3899,4.3916,0,0,0,0,0,0,4.261,4.272,4.2715,4.2885,4.2968,4.3068,4.3152,4.3149,4.3248,4.324,4.3277,4.3302,4.3457,4.3509,4.3434,4.3698,4.3638,4.3657,4.3659,4.3679,4.3694,4.3678,4.3393,0,0,0,0,0,4.2638,4.2744,4.2834,4.2975,4.3017,4.3077,4.3141,4.3159,4.3247,4.3283,4.3349,4.3436,4.3544,4.3614,4.3719,4.3893,4.3916,4.3968,4.3983,4.3996,4.4012,4.4105,4.4129,4.3878,4.3878,4.3878,0,0,4.2696,4.2769,4.2834,4.2984,4.3051,4.316,4.3107,4.3226,4.3307,4.3301,4.345,4.3502,4.3601,4.3765,4.3841,4.3813,4.4086,4.401,4.4019,4.4029,4.4119,4.4143,4.4164,4.3886,4.3884,4.3883,0,0,4.2858,4.2924,4.3048,4.3115,4.3216,4.3254,4.3284,4.3384,4.3418,4.3567,4.3565,4.3662,4.3848,4.3918,4.3978,4.4164,4.4157,4.4197,4.4279,4.437,4.439,4.4407,4.4472,4.4495,4.4213,4.4213,4.4213,0,4.2918,4.3081,4.3112,4.323,4.3296,4.3293,4.3418,4.3483,4.3613,4.3658,4.3625,4.3856,4.3924,4.4103,4.4148,4.4197,4.4232,4.4185,4.4384,4.4402,4.4419,4.4481,4.4506,4.4217,4.4217,4.4216,4.4216,0,4.3149,4.3263,4.335,4.3474,4.3549,4.3671,4.3719,4.3792,4.3803,4.3845,4.3997,4.4077,4.4196,4.4241,4.4253,4.4422,4.4401,4.4376,4.4315,4.4447,4.4505,4.453,4.4223,4.4222,4.422,4.4219,0,0,4.3341,4.3478,4.3509,4.3564,4.3674,4.3763,4.3883,4.3998,4.4059,4.4149,4.4251,4.4407,4.4383,4.4451,4.4472,4.4552,4.4691,4.4516,4.4519,4.4544,4.488,4.4897,4.4924,4.4687,4.4692,4.4695,4.4871,0,4.3513,4.3725,4.3755,4.3943,4.4047,4.4045,4.415,4.4229,4.4271,4.4366,4.4413,4.4523,4.4484,4.4525,4.4604,4.4657,4.4759,4.4645,4.4782,4.4786,4.4755,4.4955,4.4975,4.5137,4.4894,4.4898,4.4901,0,4.3742,4.3835,4.4033,4.4126,4.4171,4.4264,4.4371,4.4462,4.4551,4.4576,4.465,4.466,4.4785,4.4719,4.4891,4.4813,4.4871,4.4905,4.4912,4.4926,4.4851,4.4973,4.5189,4.5213,4.4938,4.4935,4.4932,0,4.386,4.4035,4.4175,4.4223,4.4335,4.4401,4.4451,4.4535,4.4602,4.4695,4.4739,4.4846,4.4905,4.4988,4.5026,4.4975,4.5195,4.5133,4.5219,4.5218,4.5266,4.5262,4.5493,4.5304,4.5304,4.5304,4.5303,0,4.4048,4.4169,4.4229,4.4315,4.445,4.4483,4.4615,4.4664,4.4738,4.4834,4.484,4.4929,4.4975,4.5071,4.5103,4.5239,4.5266,4.529,4.5296,4.5289,4.5285,4.5326,4.5316,4.531,4.5309,4.5307,4.5306,0,4.4203,4.4248,4.4401,4.4494,4.452,4.4615,4.4695,4.4778,4.4819,4.4939,4.497,4.5034,4.5148,4.5194,4.5335,4.5355,4.5511,4.551,4.5481,4.5483,4.5565,4.5556,4.583,4.5867,4.5655,4.5657,4.5659,0,4.432,4.4412,4.4514,4.4577,4.4629,4.4732,4.4798,4.4834,4.4904,4.501,4.5081,4.5194,4.5286,4.5468,4.5528,4.5634,4.5635,4.5723,4.5651,4.5639,4.5634,4.5628,4.5637,4.5736,4.5738,4.574,4.5742,0,4.4522,4.4539,4.4634,4.4738,4.4817,4.49,4.4982,4.5033,4.5082,4.516,4.5274,4.5346,4.5487,4.5599,4.5708,4.5761,4.5759,4.5764,4.5789,4.5782,4.576,4.5771,4.5516,4.5757,4.5756,4.5755,4.5754,4.5753,4.4661,4.4741,4.4825,4.493,4.4995,4.507,4.5152,4.5202,4.5298,4.5414,4.543,4.5553,4.5637,4.5784,4.584,4.5937,4.5915,4.5952,4.5961,4.5969,4.5974,4.5745,4.5958,4.5957,4.5957,4.5956,4.5956,0,4.4861,4.4914,4.5011,4.5123,4.5206,4.5195,4.5284,4.5354,4.5462,4.554,4.563,4.5761,4.5869,4.5936,4.6045,4.6109,4.6111,4.6136,4.6132,4.6143,4.5989,4.5955,4.6133,4.6133,4.6133,4.6133,4.6133,4.6132,4.4976,4.5111,4.5137,4.5304,4.5357,4.5476,4.5527,4.5596,4.5658,4.5804,4.5893,4.5935,4.6009,4.6122,4.622,4.6237,4.6277,4.6303,4.6319,4.6173,4.6155,4.6137,4.6106,4.6312,4.6312,4.6465,4.6467,4.6468]},{"header":{"parameterUnit":"m.s-1","parameterCategory":1,"la1":30.2991,"la2":30.254,"lo1":-89.0895,"lo2":-89.0444,"dy":0.0017,"dx":0.0017,"nx":28,"ny":28,"refTime":"2025-07-08T03:00:00:Z","depth":0,"parameterNumber":3,"parameterNumberName":"V-component_of_WINDS"},"data":[0,0,0,0,0,0,0,0,0,0,0,0,0,0,0,0,0,0,0,0,0,0,0,0,0,0,0,0,0,0,0,0,0,0,0,0,0,0,0,0,0,0,0,0,0,0,0,0,0,0,0,0,0,0,0,0,0,0,0.8978,0.8979,0,0.9051,0.9052,0.9053,0.9075,0.9075,0.9074,0.9074,0.9147,0.9149,0.9151,0,0,0,0,0,0,0,0,0,0,0,0,0,0.8854,0.8856,0.8978,0.8979,0.898,0.9051,0.9052,0.9053,0.9075,0.9075,0.9074,0.9074,0.9146,0.9149,0.9152,0,0,0,0,0,0,0,0,0,0,0,0,0,0.8915,0.8857,0.8978,0.8999,0.9002,0.9051,0.9052,0.9053,0.9075,0.9075,0.9074,0.9074,0.9145,0.9149,0.9152,0.9184,0,0,0.9163,0.9164,0,0,0,0,0,0,0,0,0.8912,0.892,0.8995,0.8998,0.9001,0.9054,0.9035,0.9097,0.9075,0.9047,0.9074,0.9074,0.9116,0.9122,0.9137,0.9187,0.919,0.9163,0.9165,0.9166,0.9167,0,0,0,0,0,0,0,0.8907,0.8917,0.9007,0.8996,0.9,0.9004,0.9013,0.9047,0.9084,0.905,0.9052,0.906,0.9118,0.9134,0.9139,0.9191,0.9163,0.9166,0.9168,0.9169,0.927,0.9271,0,0,0,0,0,0,0.89,0.8913,0.9004,0.9009,0.8954,0.9007,0.9016,0.9037,0.9084,0.909,0.9061,0.9061,0.9128,0.9135,0.9141,0.9181,0.9166,0.917,0.9171,0.927,0.9271,0.9271,0,0,0,0,0,0,0.8897,0.8908,0.9001,0.8962,0.8974,0.901,0.9033,0.9039,0.9055,0.9092,0.9098,0.907,0.9128,0.9137,0.9173,0.9184,0.9171,0.9174,0.9269,0.927,0.9271,0.9262,0,0,0,0,0,0,0.8893,0.8907,0.892,0.8962,0.8976,0.9033,0.9034,0.9041,0.9061,0.9062,0.9102,0.9109,0.9128,0.9168,0.9176,0.9189,0.9177,0.9268,0.927,0.9271,0.9261,0.9262,0.9263,0,0,0,0,0,0.8889,0.8914,0.8921,0.8931,0.8993,0.9034,0.9041,0.9064,0.9062,0.9075,0.9098,0.9107,0.9181,0.9171,0.9181,0.9195,0.9268,0.9269,0.9271,0.9261,0.9262,0.9263,0,0,0,0,0,0,0.8872,0.892,0.8928,0.8967,0.8996,0.9037,0.9055,0.9065,0.9094,0.9094,0.912,0.9129,0.9164,0.9183,0.9171,0.9227,0.9225,0.9228,0.9214,0.9215,0.9216,0.9211,0.918,0,0,0,0,0,0.8873,0.8903,0.8942,0.8973,0.8988,0.9018,0.9037,0.9052,0.9082,0.9095,0.9121,0.9149,0.9179,0.9198,0.9228,0.9264,0.9272,0.9277,0.9278,0.9279,0.9282,0.9302,0.9304,0.9276,0.9276,0.9276,0,0,0.8876,0.8905,0.8922,0.8971,0.8995,0.9024,0.9029,0.9059,0.9081,0.9099,0.9135,0.9155,0.9189,0.9225,0.9242,0.9242,0.9291,0.9281,0.9281,0.9284,0.9303,0.9306,0.9308,0.9277,0.9277,0.9277,0,0,0.8895,0.892,0.8949,0.8973,0.901,0.903,0.9036,0.9076,0.909,0.9127,0.9141,0.9166,0.9217,0.924,0.9258,0.9285,0.9294,0.9293,0.9299,0.9318,0.932,0.9322,0.9331,0.9334,0.9296,0.9296,0.9296,0,0.8893,0.8938,0.8962,0.8992,0.9013,0.903,0.9059,0.9081,0.9125,0.9138,0.9137,0.9201,0.9224,0.9266,0.9272,0.9287,0.9295,0.9289,0.9318,0.932,0.9322,0.9331,0.9335,0.9296,0.9296,0.9296,0.9296,0,0.8934,0.8965,0.8983,0.9026,0.9048,0.9077,0.9104,0.9124,0.9136,0.9156,0.9193,0.9222,0.9257,0.9268,0.928,0.9311,0.931,0.9313,0.9311,0.9324,0.9333,0.9337,0.9295,0.9295,0.9295,0.9295,0,0,0.8946,0.9,0.9007,0.9026,0.9067,0.9091,0.912,0.9155,0.9171,0.9201,0.9225,0.9267,0.927,0.9291,0.9306,0.9322,0.9341,0.9323,0.9324,0.9325,0.9376,0.9373,0.9377,0.9346,0.9347,0.9348,0.9373,0,0.897,0.9024,0.9046,0.9089,0.9118,0.9134,0.9159,0.9187,0.9205,0.9231,0.9252,0.9281,0.9283,0.9296,0.9313,0.9335,0.9351,0.9333,0.9369,0.937,0.9361,0.9382,0.938,0.9402,0.9376,0.9377,0.9377,0,0.9006,0.9036,0.9083,0.912,0.9133,0.9155,0.9188,0.9213,0.9244,0.9256,0.9279,0.9293,0.9322,0.9318,0.9359,0.9346,0.9361,0.9374,0.9376,0.938,0.9375,0.9387,0.941,0.9413,0.9383,0.9383,0.9382,0,0.901,0.9062,0.9097,0.9112,0.9157,0.9172,0.9191,0.9221,0.924,0.9269,0.9281,0.9313,0.933,0.9353,0.9374,0.9369,0.9413,0.941,0.9424,0.9423,0.9433,0.9432,0.9458,0.9442,0.9442,0.9442,0.9442,0,0.9036,0.9063,0.9099,0.912,0.9151,0.9175,0.9205,0.9224,0.9251,0.9275,0.9291,0.9313,0.934,0.9365,0.9381,0.9412,0.942,0.943,0.9434,0.9429,0.9428,0.944,0.9439,0.9443,0.9443,0.9442,0.9442,0,0.9046,0.9071,0.9109,0.9148,0.9158,0.9179,0.9211,0.9232,0.9251,0.9281,0.929,0.932,0.935,0.9373,0.9413,0.9424,0.9456,0.9461,0.9447,0.9449,0.9461,0.9459,0.9496,0.9502,0.9481,0.9482,0.9482,0,0.906,0.9082,0.9123,0.9141,0.916,0.9188,0.9208,0.9232,0.9252,0.9288,0.9303,0.9335,0.9362,0.9409,0.9434,0.9464,0.9469,0.948,0.9473,0.9467,0.9469,0.9468,0.947,0.9481,0.9481,0.9481,0.9481,0,0.9084,0.9095,0.9124,0.9157,0.918,0.9207,0.9234,0.9247,0.9275,0.9296,0.9328,0.9349,0.9389,0.942,0.9452,0.947,0.948,0.9482,0.9487,0.9482,0.9473,0.9478,0.9449,0.9482,0.9482,0.9482,0.9482,0.9482,0.9097,0.9117,0.9149,0.918,0.9202,0.9227,0.9248,0.927,0.9297,0.9332,0.9344,0.9376,0.9405,0.9449,0.9468,0.9493,0.9493,0.9499,0.9501,0.9503,0.9502,0.9469,0.9498,0.9498,0.9498,0.9498,0.9498,0,0.9121,0.9142,0.9171,0.9208,0.9232,0.924,0.927,0.9289,0.9318,0.9344,0.937,0.9406,0.9436,0.9462,0.9493,0.9507,0.9512,0.9514,0.9514,0.9518,0.95,0.9493,0.951,0.951,0.951,0.951,0.951,0.951,0.9137,0.9171,0.9186,0.923,0.9251,0.9284,0.93,0.9322,0.9343,0.9383,0.9408,0.9425,0.9451,0.9484,0.9511,0.9518,0.9528,0.9529,0.9537,0.952,0.9519,0.9518,0.9511,0.9531,0.9531,0.9552,0.9553,0.9553]}]]